Crookston, MN

12:17 PM CDT on August 30, 2016 (GMT -0500)
Crookston Municipal-Kirkwood

Weather History for KCKN - October, 2012

Change the Weather History Date:

Friday, October 12, 2012

  Actual Average Record
Temperature  
Mean Temperature 36 °F -  
Max Temperature 51 °F 53 °F 75 °F (1996)
Min Temperature 21 °F 34 °F 21 °F (2012)
Degree Days  
Heating Degree Days 29    
Moisture  
Dew Point 23 °F    
Average Humidity 64    
Maximum Humidity 100    
Minimum Humidity 28    
Precipitation  
Precipitation 0.00 in - - ()
Sea Level Pressure  
Sea Level Pressure 30.16 in    
Wind  
Wind Speed 11 mph (South)    
Max Wind Speed 30 mph    
Max Gust Speed 37 mph    
Visibility 10 miles    
Events      
Averages and records for this station are not official NWS values.
T = Trace of Precipitation, MM = Missing Value Source: NWS Daily Summary

Daily Weather History Graph

Daily Weather History Graph

Search for Another Location

Airport or City:

Trip Planner

Search our weather history database for the weather conditions in past years. The results will help you decide how hot, cold, wet, or windy it might be!

Date:

Astronomy

Oct. 12, 2012 Rise Set
Actual Time 7:41 AM CDT 6:42 PM CDT
Civil Twilight 7:10 AM CDT 7:13 PM CDT
Nautical Twilight 6:35 AM CDT 7:49 PM CDT
Astronomical Twilight 5:59 AM CDT 8:25 PM CDT
Moon 4:14 AM CDT (10/12) 5:02 PM CDT (10/12)
Length of Visible Light 12h 03m
Length of Day
11h 00m
Waning Crescent, 10% of the Moon is Illuminated
Oct 12
Waning Crescent
Oct 15
New
Oct 21
First Quarter
Oct 29
Full
Nov 6
Last Quarter

Hourly Weather History & Observations

Time (CDT) Temp. Windchill Dew Point Humidity Pressure Visibility Wind Dir Wind Speed Gust Speed Precip Events Conditions
12:15 AM 24.8 °F 17.9 °F 21.2 °F 86% 30.39 in 10.0 mi SSE 5.8 mph - N/A   Clear
12:34 AM 23.0 °F 17.0 °F 21.2 °F 93% 30.39 in 10.0 mi South 4.6 mph - N/A   Clear
12:54 AM 23.0 °F 18.4 °F 21.2 °F 93% 30.39 in 10.0 mi South 3.5 mph - N/A   Clear
1:15 AM 21.2 °F 14.9 °F 21.2 °F 100% 30.38 in 10.0 mi SSE 4.6 mph - N/A   Clear
1:34 AM 21.2 °F 14.9 °F 21.2 °F 100% 30.39 in 10.0 mi South 4.6 mph - N/A   Clear
1:55 AM 23.0 °F 17.0 °F 21.2 °F 93% 30.39 in 10.0 mi South 4.6 mph - N/A   Clear
2:15 AM 21.2 °F 13.6 °F 21.2 °F 100% 30.39 in 10.0 mi SSE 5.8 mph - N/A   Clear
2:34 AM 21.2 °F 12.6 °F 21.2 °F 100% 30.39 in 10.0 mi SSE 6.9 mph - N/A   Clear
2:55 AM 21.2 °F 12.6 °F 21.2 °F 100% 30.38 in 10.0 mi SSE 6.9 mph - N/A   Clear
3:15 AM 23.0 °F 15.8 °F 21.2 °F 93% 30.38 in 10.0 mi SSE 5.8 mph - N/A   Clear
3:34 AM 23.0 °F 15.8 °F 21.2 °F 93% 30.38 in 10.0 mi South 5.8 mph - N/A   Clear
3:55 AM 26.6 °F 20.0 °F 23.0 °F 86% 30.37 in 10.0 mi South 5.8 mph - N/A   Clear
4:15 AM 24.8 °F 16.9 °F 21.2 °F 86% 30.37 in 10.0 mi SSE 6.9 mph - N/A   Clear
4:34 AM 24.8 °F 16.1 °F 21.2 °F 86% 30.36 in 10.0 mi SSE 8.1 mph - N/A   Clear
4:55 AM 23.0 °F 15.8 °F 21.2 °F 93% 30.35 in 10.0 mi South 5.8 mph - N/A   Clear
5:15 AM 23.0 °F 14.7 °F 21.2 °F 93% 30.36 in 10.0 mi South 6.9 mph - N/A   Clear
5:55 AM 24.8 °F 17.9 °F 21.2 °F 86% 30.36 in 10.0 mi South 5.8 mph - N/A   Clear
6:15 AM 23.0 °F 14.7 °F 21.2 °F 93% 30.36 in 10.0 mi SSE 6.9 mph - N/A   Clear
6:34 AM 24.8 °F 16.1 °F 21.2 °F 86% 30.35 in 10.0 mi South 8.1 mph - N/A   Clear
6:55 AM 24.8 °F 16.9 °F 21.2 °F 86% 30.35 in 10.0 mi South 6.9 mph - N/A   Clear
7:15 AM 24.8 °F 16.1 °F 21.2 °F 86% 30.35 in 10.0 mi South 8.1 mph - N/A   Clear
7:34 AM 26.6 °F 17.5 °F 23.0 °F 86% 30.34 in 10.0 mi South 9.2 mph - N/A   Clear
7:55 AM 26.6 °F 16.8 °F 23.0 °F 86% 30.33 in 10.0 mi South 10.4 mph - N/A   Clear
8:14 AM 28.4 °F 18.5 °F 24.8 °F 86% 30.33 in 10.0 mi South 11.5 mph - N/A   Clear
8:34 AM 28.4 °F 17.5 °F 24.8 °F 86% 30.32 in 10.0 mi South 13.8 mph - N/A   Clear
9:14 AM 30.2 °F 18.5 °F 26.6 °F 86% 30.30 in 10.0 mi South 17.3 mph - N/A   Clear
9:35 AM 32.0 °F 20.5 °F 26.6 °F 80% 30.29 in 10.0 mi South 18.4 mph - N/A   Clear
9:55 AM 33.8 °F 23.5 °F 26.6 °F 75% 30.28 in 10.0 mi South 16.1 mph - N/A   Clear
10:14 AM 35.6 °F 24.2 °F 26.6 °F 70% 30.28 in 10.0 mi South 21.9 mph 25.3 mph N/A   Scattered Clouds
10:35 AM 35.6 °F 25.9 °F 28.4 °F 75% 30.27 in 10.0 mi South 16.1 mph 21.9 mph N/A   Overcast
10:55 AM 35.6 °F 25.5 °F 28.4 °F 75% 30.26 in 10.0 mi South 17.3 mph 23.0 mph N/A   Overcast
11:14 AM 37.4 °F 27.5 °F 28.4 °F 70% 30.25 in 10.0 mi South 18.4 mph - N/A   Overcast
11:35 AM 37.4 °F 27.5 °F 28.4 °F 70% 30.23 in 10.0 mi South 18.4 mph 26.5 mph N/A   Overcast
11:55 AM 39.2 °F 29.3 °F 28.4 °F 65% 30.23 in 10.0 mi South 20.7 mph 27.6 mph N/A   Overcast
12:14 PM 39.2 °F 29.3 °F 28.4 °F 65% 30.22 in 10.0 mi SSW 20.7 mph 27.6 mph N/A   Overcast
12:35 PM 41.0 °F 31.4 °F 26.6 °F 57% 30.21 in 10.0 mi South 21.9 mph 26.5 mph N/A   Overcast
12:54 PM 42.8 °F 33.5 °F 26.6 °F 53% 30.20 in 10.0 mi South 23.0 mph 26.5 mph N/A   Overcast
1:35 PM 44.6 °F 35.3 °F 26.6 °F 49% 30.17 in 10.0 mi South 26.5 mph 32.2 mph N/A   Overcast
1:54 PM 44.6 °F 35.3 °F 26.6 °F 49% 30.15 in 10.0 mi SSW 26.5 mph 31.1 mph N/A   Overcast
2:14 PM 46.4 °F 38.1 °F 26.6 °F 46% 30.12 in 10.0 mi South 24.2 mph 31.1 mph N/A   Overcast
2:35 PM 46.4 °F 38.3 °F 24.8 °F 43% 30.11 in 10.0 mi South 23.0 mph 33.4 mph N/A   Mostly Cloudy
2:54 PM 48.2 °F - 24.8 °F 40% 30.09 in 10.0 mi South 23.0 mph 27.6 mph N/A   Scattered Clouds
3:14 PM 50.0 °F - 23.0 °F 35% 30.07 in 10.0 mi South 21.9 mph 32.2 mph N/A   Clear
3:35 PM 50.0 °F - 21.2 °F 32% 30.05 in 10.0 mi SSW 26.5 mph 35.7 mph N/A   Clear
3:54 PM 50.0 °F - 19.4 °F 30% 30.04 in 10.0 mi South 27.6 mph 33.4 mph N/A   Clear
4:15 PM 50.0 °F - 19.4 °F 30% 30.02 in 10.0 mi South 29.9 mph 36.8 mph N/A   Clear
4:35 PM 51.8 °F - 19.4 °F 28% 30.00 in 10.0 mi South 26.5 mph 34.5 mph N/A   Clear
5:15 PM 50.0 °F - 19.4 °F 30% 29.98 in 7.0 mi South 25.3 mph 34.5 mph N/A   Clear
5:55 PM 50.0 °F - 19.4 °F 30% 29.95 in 10.0 mi South 24.2 mph 28.8 mph N/A   Clear
6:15 PM 48.2 °F - 19.4 °F 32% 29.95 in 10.0 mi South 23.0 mph 29.9 mph N/A   Clear
6:34 PM 48.2 °F - 21.2 °F 34% 29.94 in 7.0 mi South 18.4 mph 27.6 mph N/A   Clear
6:55 PM 48.2 °F - 21.2 °F 34% 29.94 in 10.0 mi South 17.3 mph 26.5 mph N/A   Clear
7:15 PM 46.4 °F 39.8 °F 21.2 °F 37% 29.94 in 10.0 mi South 16.1 mph 20.7 mph N/A   Clear
7:34 PM 46.4 °F 40.1 °F 21.2 °F 37% 29.93 in 10.0 mi South 15.0 mph 20.7 mph N/A   Clear
7:55 PM 44.6 °F 38.1 °F 21.2 °F 39% 29.93 in 10.0 mi South 13.8 mph - N/A   Clear
8:15 PM 44.6 °F 38.1 °F 21.2 °F 39% 29.91 in 7.0 mi South 13.8 mph 18.4 mph N/A   Clear
8:34 PM 44.6 °F 38.4 °F 21.2 °F 39% 29.90 in 10.0 mi South 12.7 mph - N/A   Clear
8:55 PM 44.6 °F 37.8 °F 21.2 °F 39% 29.89 in 10.0 mi South 15.0 mph - N/A   Clear
9:15 PM 42.8 °F 35.8 °F 21.2 °F 42% 29.88 in 10.0 mi South 13.8 mph - N/A   Clear
9:34 PM 42.8 °F 35.1 °F 21.2 °F 42% 29.86 in 10.0 mi South 16.1 mph - N/A   Clear
9:55 PM 42.8 °F 35.1 °F 21.2 °F 42% 29.85 in 10.0 mi South 16.1 mph - N/A   Clear
10:15 PM 42.8 °F 35.4 °F 21.2 °F 42% 29.84 in 10.0 mi South 15.0 mph - N/A   Clear
10:34 PM 42.8 °F 35.4 °F 21.2 °F 42% 29.84 in 10.0 mi SSE 15.0 mph - N/A   Clear
10:55 PM 39.2 °F 31.6 °F 23.0 °F 52% 29.83 in 10.0 mi SSE 12.7 mph - N/A   Clear
11:14 PM 39.2 °F 31.2 °F 23.0 °F 52% 29.82 in 10.0 mi SSE 13.8 mph - N/A   Clear
11:34 PM 39.2 °F 30.8 °F 23.0 °F 52% 29.82 in 10.0 mi SSE 15.0 mph - N/A   Clear
11:55 PM 42.8 °F 35.8 °F 21.2 °F 42% 29.81 in 10.0 mi SSE 13.8 mph - N/A   Clear